JZA8264 CYXU-CYYZ

Flight info

Callsign JZA8264
Flight time N/A
Altitude 9000
Route NUBER NAKBO6
Aircraft DH8A/M-VGDW/C

Departure

Time 2026-05-09 01:12
Airport London International Airport (CYXU)

Arrival

Time N/A
Airport Toronto Pearson International Airport (CYYZ)
Time Latitude Longitude Altitude Speed Heading
2026-05-09 00:56 43.02812 -81.14805 918 ft 0 kts 229°
2026-05-09 01:02 43.02812 -81.14804 918 ft 1 kts 229°
2026-05-09 01:02 43.02820 -81.14792 918 ft 2 kts 229°
2026-05-09 01:03 43.02822 -81.14789 918 ft 0 kts 229°
2026-05-09 01:07 43.02822 -81.14790 918 ft 0 kts 230°
2026-05-09 01:08 43.02837 -81.14766 918 ft 15 kts 64°
2026-05-09 01:08 43.02940 -81.14801 918 ft 27 kts 320°
2026-05-09 01:08 43.03118 -81.15012 918 ft 38 kts 320°
2026-05-09 01:08 43.03324 -81.15254 918 ft 39 kts 315°
2026-05-09 01:09 43.03470 -81.15420 918 ft 17 kts 318°
2026-05-09 01:09 43.03579 -81.15550 918 ft 30 kts 317°
2026-05-09 01:09 43.03759 -81.15764 918 ft 37 kts 320°
2026-05-09 01:09 43.03917 -81.15946 918 ft 20 kts 320°
2026-05-09 01:10 43.03984 -81.16009 918 ft 7 kts 346°
2026-05-09 01:10 43.04082 -81.16017 918 ft 10 kts
2026-05-09 01:10 43.04086 -81.16017 918 ft 0 kts
2026-05-09 01:11 43.04134 -81.16004 918 ft 11 kts 29°
2026-05-09 01:11 43.04150 -81.15912 918 ft 13 kts 130°
2026-05-09 01:11 43.03947 -81.15667 918 ft 98 kts 138°
2026-05-09 01:12 43.03207 -81.14786 940 ft 171 kts 141°
2026-05-09 01:12 43.02302 -81.13741 1830 ft 166 kts 141°
2026-05-09 01:12 43.01334 -81.12630 2512 ft 194 kts 141°
2026-05-09 01:12 43.00282 -81.11335 3084 ft 212 kts 140°
2026-05-09 01:13 42.99172 -81.09914 3645 ft 226 kts 140°
2026-05-09 01:13 42.97983 -81.08368 4060 ft 244 kts 139°
2026-05-09 01:13 42.96826 -81.06611 4525 ft 255 kts 127°
2026-05-09 01:13 42.96192 -81.04327 5039 ft 262 kts 103°
2026-05-09 01:14 42.96259 -81.01829 5527 ft 268 kts 78°
2026-05-09 01:14 42.97036 -80.99518 6044 ft 269 kts 55°
2026-05-09 01:14 42.98224 -80.97545 6547 ft 271 kts 46°
2026-05-09 01:14 42.99548 -80.95697 7034 ft 273 kts 43°
2026-05-09 01:15 43.00928 -80.93928 7516 ft 273 kts 39°
2026-05-09 01:15 43.02356 -80.92197 7970 ft 275 kts 38°
2026-05-09 01:15 43.03798 -80.90476 8420 ft 276 kts 38°
2026-05-09 01:15 43.05249 -80.88722 8838 ft 279 kts 38°
2026-05-09 01:16 43.06725 -80.86920 8954 ft 287 kts 39°
2026-05-09 01:16 43.08173 -80.85131 8989 ft 275 kts 39°
2026-05-09 01:16 43.09568 -80.83394 8997 ft 266 kts 39°
2026-05-09 01:17 43.12185 -80.80097 9000 ft 261 kts 39°
2026-05-09 01:17 43.13515 -80.78420 9000 ft 259 kts 39°
2026-05-09 01:17 43.14837 -80.76752 9002 ft 258 kts 39°
2026-05-09 01:17 43.16158 -80.75082 9002 ft 258 kts 39°
2026-05-09 01:18 43.17478 -80.73415 9003 ft 257 kts 39°
2026-05-09 01:18 43.18795 -80.71754 9001 ft 257 kts 39°
2026-05-09 01:18 43.20112 -80.70092 8993 ft 258 kts 39°
2026-05-09 01:18 43.21436 -80.68422 8992 ft 259 kts 39°
2026-05-09 01:19 43.22774 -80.66731 8994 ft 264 kts 39°
2026-05-09 01:19 43.24132 -80.65024 8999 ft 266 kts 39°
2026-05-09 01:19 43.25507 -80.63303 8994 ft 267 kts 39°
2026-05-09 01:19 43.26881 -80.61584 8997 ft 267 kts 39°
2026-05-09 01:20 43.28255 -80.59861 8996 ft 268 kts 39°
2026-05-09 01:20 43.29638 -80.58140 8994 ft 269 kts 39°
2026-05-09 01:20 43.31020 -80.56419 8993 ft 269 kts 39°
2026-05-09 01:20 43.32409 -80.54687 8993 ft 269 kts 39°
2026-05-09 01:21 43.33794 -80.52959 8993 ft 269 kts 39°
2026-05-09 01:21 43.35180 -80.51231 9002 ft 268 kts 38°
2026-05-09 01:21 43.36570 -80.49513 9008 ft 269 kts 39°
2026-05-09 01:21 43.37962 -80.47792 9002 ft 269 kts 39°
2026-05-09 01:22 43.39350 -80.46069 8997 ft 269 kts 39°
2026-05-09 01:22 43.40741 -80.44346 8996 ft 269 kts 39°
2026-05-09 01:22 43.42116 -80.42616 8942 ft 264 kts 39°
2026-05-09 01:22 43.43477 -80.40906 8741 ft 268 kts 39°
2026-05-09 01:23 43.44798 -80.39067 8567 ft 274 kts 48°
2026-05-09 01:23 43.45873 -80.36884 8394 ft 277 kts 58°
2026-05-09 01:23 43.46750 -80.34518 8250 ft 278 kts 64°
2026-05-09 01:23 43.47488 -80.32107 8141 ft 276 kts 68°
2026-05-09 01:24 43.48166 -80.29627 8040 ft 276 kts 69°
2026-05-09 01:24 43.48819 -80.27120 8006 ft 280 kts 70°
2026-05-09 01:24 43.49472 -80.24585 7993 ft 281 kts 70°
2026-05-09 01:24 43.50134 -80.22052 8000 ft 280 kts 69°
2026-05-09 01:25 43.50801 -80.19544 7995 ft 280 kts 69°
2026-05-09 01:25 43.51476 -80.17025 7991 ft 279 kts 69°
2026-05-09 01:25 43.52147 -80.14518 7999 ft 279 kts 69°
2026-05-09 01:25 43.52818 -80.11997 7997 ft 280 kts 69°
2026-05-09 01:26 43.53490 -80.09488 7998 ft 280 kts 69°
2026-05-09 01:26 43.54163 -80.06973 7999 ft 280 kts 69°
2026-05-09 01:26 43.54834 -80.04448 7997 ft 280 kts 69°
2026-05-09 01:26 43.55506 -80.01932 7997 ft 280 kts 69°
2026-05-09 01:27 43.56178 -79.99421 7999 ft 279 kts 69°
2026-05-09 01:27 43.56853 -79.96903 7998 ft 279 kts 69°
2026-05-09 01:27 43.57528 -79.94390 8000 ft 279 kts 69°
2026-05-09 01:27 43.58197 -79.91887 8000 ft 279 kts 69°